Temperature
17 17 18 17 17 17 17 17 17 18 17 17 17 17 17 17 17 17 17 17 17 17 17 17 17 17 18 18 18 18 18 18 18 18 18 18 18 18 18 18 17 17 18
17 17 17 17 17 17 17 17 17 17 17 17 17 17 17 17 17 17 17 17 17 17 17 17 17 17 17 18 18 17 18 18 18 18 18 17 18 18 18 18 18 17 18
17 17 17 17 17 17 17 17 17 17 17 17 17 17 17 17 17 17 17 17 17 17 17 17 17 17 17 17 17 17 17 18 18 18 17 17 17 17 17 18 18 18 18
17 17 17 17 17 17 17 17 17 17 17 17 17 17 17 17 17 17 17 17 17 17 17 17 17 17 17 17 17 17 17 17 18 17 17 17 17 17 17 17 18 18 18
17 17 17 17 17 17 17 17 17 17 17 17 17 16 16 17 17 17 17 17 17 17 17 17 17 17 17 17 17 17 17 17 17 17 16 17 17 17 17 17 17 17 17
16 16 17 17 17 17 17 17 17 17 17 16 16 16 16 16 16 16 16 16 16 16 17 17 17 17 17 17 17 17 17 17 16 16 16 16 17 17 17 17 17 17 17
16 16 16 17 17 17 17 17 17 16 16 16 16 16 16 16 16 16 16 16 16 16 17 16 17 17 17 17 17 17 17 17 16 16 16 16 16 17 17 17 17 17 17
16 16 16 17 17 17 16 16 16 16 16 16 16 16 16 16 16 16 16 16 16 16 16 16 16 17 17 17 17 17 17 16 16 16 16 16 17 17 17 17 17 17 17
16 16 16 16 16 16 16 16 16 16 16 16 16 16 16 16 16 16 16 16 16 16 16 16 16 16 16 16 16 16 16 16 16 16 16 16 16 16 17 17 17 17 17
16 16 16 16 16 16 16 16 16 16 16 16 16 16 16 16 16 16 16 16 16 16 16 16 16 16 16 16 16 16 16 16 16 16 16 16 16 16 16 16 17 17 17
16 16 16 16 16 16 16 16 16 16 16 16 16 16 16 16 16 16 16 16 16 16 16 16 16 16 16 16 16 16 16 15 15 15 15 16 16 16 16 16 16 16 16
17 17 16 16 16 16 16 16 16 16 16 16 16 16 16 16 16 15 16 16 16 16 16 16 16 16 16 16 16 16 16 15 15 15 15 16 16 16 16 16 16 16 16
17 17 17 17 16 16 16 16 16 16 16 16 16 16 16 16 16 15 16 16 16 16 16 16 16 15 15 15 15 15 15 15 15 15 15 16 16 16 16 16 16 16 16
17 17 17 17 17 16 16 16 16 16 16 16 16 16 16 16 16 15 15 15 16 16 15 15 15 15 15 15 15 15 15 15 15 15 15 15 15 15 15 16 16 16 16
17 17 17 17 17 17 16 16 16 16 16 16 16 16 16 16 16 16 15 15 15 15 15 15 15 15 15 15 15 15 15 15 15 15 15 15 15 15 15 15 15 15 15
17 17 17 17 17 17 17 16 16 16 16 16 16 16 16 16 16 16 15 15 15 15 15 15 15 15 15 15 15 15 15 15 14 14 15 15 15 15 15 15 15 15 15
18 17 17 17 17 17 17 16 16 16 16 16 16 16 16 16 16 15 15 15 15 15 15 15 15 15 15 15 14 14 14 14 14 14 14 14 14 14 14 15 15 15 15
18 17 17 17 17 17 17 16 16 16 16 16 16 16 16 16 16 15 15 15 15 15 15 15 15 15 15 14 14 14 14 14 14 14 14 14 14 14 14 14 14 14 14
17 17 17 17 17 17 16 16 16 16 16 16 16 16 16 16 16 15 15 15 15 15 15 15 15 15 15 14 14 14 14 14 14 14 14 14 14 14 13 14 14 14 14
17 17 17 17 17 16 16 16 16 16 16 16 16 16 15 15 15 15 15 15 15 15 15 15 15 15 14 14 14 14 14 14 14 13 13 13 13 13 13 13 13 13 13
17 17 17 17 16 16 16 16 16 16 16 16 15 15 15 15 15 15 15 15 15 15 15 15 15 14 14 14 14 14 14 13 13 13 13 13 13 13 13 13 13 13 13
17 17 17 16 16 16 16 16 16 16 15 15 15 15 15 15 15 15 15 15 15 15 15 14 14 14 14 14 14 14 14 14 13 13 13 13 13 13 13 13 13 12 12
17 17 16 16 16 16 16 16 16 16 15 15 15 15 15 15 15 15 15 15 15 15 15 14 14 14 14 14 14 14 15 15 14 13 13 13 13 13 12 12 12 12 12
17 17 16 16 16 16 16 16 16 16 15 15 15 15 15 15 15 15 15 14 14 15 15 14 14 14 14 14 14 14 14 14 14 14 13 12 12 12 12 12 12 12 12
17 17 16 16 16 16 16 16 16 15 15 15 15 15 15 15 14 14 14 14 14 14 14 14 14 14 14 14 14 14 14 14 14 14 13 12 12 12 12 12 12 12 12
17 17 16 16 16 16 16 16 15 15 15 15 15 15 15 14 14 14 14 14 14 14 14 14 14 14 14 14 14 14 14 14 14 14 14 13 12 12 11 12 11 11 11
Wind_Speed
2 4 5 5 6 7 8 9 9 10 10 10 10 10 10 11 11 11 11 11 10 10 10 9 9 9 9 9 8 8 9 9 10 10 10 10 10 10 9 8 6 9 10
3 4 6 6 7 8 9 10 10 10 10 10 10 10 11 11 11 11 11 11 10 10 10 10 10 10 9 9 8 8 9 10 9 9 8 9 11 10 10 10 9 10 10
5 5 6 7 7 8 9 10 10 11 11 11 10 11 11 11 11 11 11 10 11 11 10 11 11 10 10 9 9 9 10 10 9 6 4 7 10 11 11 10 10 11 11
5 5 7 7 7 9 10 10 10 10 11 11 11 11 11 11 11 11 11 10 10 11 11 11 12 12 11 11 11 11 11 10 8 3 6 8 9 11 10 10 10 10 10
6 6 8 9 9 10 10 10 10 10 10 10 10 11 11 11 11 11 11 11 11 11 11 11 12 12 12 13 13 12 11 9 6 6 8 8 9 10 10 10 10 9 9
6 7 10 9 10 10 10 10 10 10 10 10 10 10 10 11 11 10 11 11 11 12 11 11 11 12 12 13 13 12 11 7 5 8 8 8 9 10 10 10 10 9 9
6 8 9 9 9 9 10 10 9 9 9 10 10 10 10 10 10 10 10 10 11 11 11 10 11 12 12 13 13 12 9 5 7 8 8 9 10 9 9 10 9 9 9
7 7 9 9 8 9 9 9 9 9 9 9 9 10 10 10 10 10 10 10 10 10 10 10 11 12 12 12 12 12 10 7 8 9 9 9 10 9 9 9 9 9 9
7 6 7 8 8 9 9 9 9 9 9 9 9 9 10 10 10 10 10 10 10 10 10 11 12 12 12 12 12 11 10 8 8 8 9 10 10 10 10 10 10 10 10
6 6 7 7 7 8 9 9 9 9 9 9 9 9 8 9 10 8 9 10 10 10 11 11 12 13 13 12 11 10 6 5 10 9 9 11 11 11 11 11 11 11 10
6 6 6 7 7 7 8 8 8 8 7 6 8 7 4 6 8 8 11 10 10 11 11 11 11 10 10 11 10 7 6 8 9 10 11 12 11 11 11 11 11 11 11
6 6 5 6 6 6 6 6 6 6 5 5 6 6 6 6 7 8 10 10 10 10 10 9 8 7 5 7 8 5 8 9 8 10 12 13 12 12 11 11 11 11 11
6 5 5 5 5 5 5 5 4 4 5 5 6 6 5 5 5 5 5 6 7 6 7 7 6 7 7 7 7 8 9 9 9 10 13 14 13 12 12 12 11 11 11
6 5 4 4 4 4 4 4 4 4 4 5 4 5 4 4 4 4 4 4 4 5 6 6 6 7 8 9 9 9 10 9 9 9 13 15 14 13 12 12 12 11 11
6 5 4 4 4 4 4 3 4 4 4 5 4 4 5 3 3 4 4 4 5 5 6 5 6 7 7 8 9 9 10 10 10 9 11 16 16 14 14 14 13 12 12
5 5 5 4 4 4 4 4 4 4 4 4 4 4 4 4 3 3 4 4 4 5 6 6 7 6 7 7 8 9 9 9 10 10 9 11 15 16 15 14 14 13 13
5 5 5 4 4 4 4 4 3 3 4 4 3 4 4 3 3 4 4 4 4 5 6 6 7 6 6 6 7 8 8 9 9 10 9 9 10 14 16 15 15 14 13
5 5 5 4 4 4 3 3 3 3 3 3 3 3 3 3 4 4 3 4 5 5 5 4 4 5 5 5 6 6 7 7 9 9 9 10 9 10 14 16 16 15 14
5 5 6 6 4 4 4 3 3 4 3 2 2 3 2 3 3 3 3 4 5 4 4 4 4 4 5 6 6 6 6 7 7 8 9 10 10 10 10 12 15 17 16
5 5 5 5 5 5 4 3 3 3 2 2 2 2 2 2 2 3 3 4 4 3 3 4 5 4 5 5 6 6 6 6 6 7 8 9 10 10 10 10 10 12 15
6 5 5 5 5 4 4 3 3 3 2 2 2 2 2 2 2 2 2 3 3 3 3 4 4 5 4 4 4 5 5 6 6 6 6 7 8 9 10 10 9 9 10
7 6 5 4 4 4 3 3 2 2 2 2 2 2 2 2 1 1 2 2 2 3 3 3 3 3 2 1 1 2 2 3 4 5 5 6 6 7 8 10 10 10 10
8 7 5 5 5 4 4 3 4 3 3 2 2 2 2 2 2 1 1 2 3 3 3 3 2 2 2 1 1 1 0 1 2 3 5 5 5 5 6 8 9 9 10
8 7 7 6 6 6 5 5 4 3 3 2 2 2 2 2 2 1 1 2 2 2 3 2 2 2 2 2 1 0 1 1 1 2 3 4 5 5 5 5 7 8 9
8 7 7 7 6 6 6 5 5 4 3 3 3 3 2 2 2 2 1 2 2 2 2 2 2 2 1 1 1 1 1 1 1 1 1 2 3 3 4 5 5 6 7
7 7 7 7 6 6 6 6 5 5 4 4 3 3 2 2 2 2 1 1 2 1 1 1 1 1 1 1 1 1 1 1 2 1 1 2 2 3 3 4 4 5 5
Wind_Direction
62 63 71 63 72 74 77 82 83 81 82 85 90 91 91 90 88 90 89 89 86 84 80 76 73 74 75 74 74 78 81 79 80 80 77 72 69 67 68 71 78 85 85
87 80 82 70 74 77 80 79 81 82 81 84 87 88 90 88 87 86 87 85 84 83 78 74 73 73 73 72 74 80 81 78 79 81 88 89 76 71 71 69 58 77 82
89 85 91 81 77 82 80 82 83 83 84 86 87 89 91 90 88 85 84 83 81 80 77 74 72 72 70 67 77 82 79 76 77 83 97 84 84 75 71 72 73 79 81
86 83 83 86 84 85 84 83 83 82 83 85 86 86 88 89 89 86 82 83 82 79 75 73 71 70 67 65 79 83 77 74 72 65 76 71 77 77 75 75 76 79 81
88 84 86 86 86 85 85 84 80 78 81 83 85 84 87 89 88 85 82 81 82 78 72 71 72 72 71 68 74 77 75 73 71 60 65 67 71 73 73 74 74 76 78
92 87 88 82 84 83 85 83 80 77 80 83 82 83 86 87 85 84 83 80 80 77 73 72 74 73 73 73 74 73 70 61 69 67 67 68 71 70 70 71 72 72 74
95 92 91 85 87 86 85 84 82 80 78 79 81 82 85 85 83 81 80 79 77 77 74 75 76 75 75 75 73 69 64 46 64 69 67 66 67 69 71 73 77 76 75
101 98 99 96 87 88 87 85 84 82 78 77 79 80 81 81 82 83 80 79 78 79 78 77 78 77 77 75 71 65 53 26 70 67 66 66 65 69 72 76 80 78 77
103 101 102 102 102 100 91 85 85 83 80 79 79 78 80 80 78 81 81 79 80 83 82 80 78 77 76 73 70 66 60 42 59 60 64 65 65 70 74 77 78 76 74
105 102 102 99 99 106 104 92 86 83 81 80 77 74 84 94 90 86 87 79 79 82 86 86 84 84 80 74 68 62 54 56 59 59 57 64 65 71 74 76 75 73 73
110 107 105 105 102 102 101 103 104 99 92 103 95 88 96 91 88 88 74 77 80 81 83 85 88 88 90 83 70 60 53 58 60 56 54 56 61 67 71 72 72 71 72
120 115 113 110 109 108 103 107 100 95 94 86 85 84 78 76 75 79 89 85 85 90 92 89 99 109 101 86 84 72 64 64 59 61 55 52 61 66 69 70 71 71 72
123 123 126 123 114 109 107 98 92 91 89 82 77 84 80 79 87 83 93 107 105 109 96 100 103 83 81 74 68 67 61 61 58 58 55 53 59 63 65 69 70 70 71
130 129 129 128 124 117 108 99 98 95 91 86 78 76 82 78 76 79 80 80 89 91 90 88 82 84 79 78 73 71 68 62 61 61 57 54 59 62 63 65 66 68 71
142 137 131 139 128 120 108 103 101 93 86 87 76 71 77 82 82 86 86 86 88 91 93 90 87 86 82 74 69 68 67 65 63 63 65 58 57 59 62 64 62 63 69
153 146 140 147 136 132 123 113 97 91 95 87 79 76 78 81 86 89 89 88 88 85 85 89 85 84 82 78 73 69 66 66 62 62 65 67 60 55 57 61 60 60 64
158 153 150 148 143 138 123 105 99 95 91 88 87 79 82 78 85 94 91 95 94 92 92 88 88 85 85 86 80 72 66 62 63 63 62 60 64 62 56 56 56 58 61
168 160 155 160 158 147 131 117 109 97 87 88 90 81 79 77 76 86 94 96 97 94 93 94 95 94 90 84 78 73 71 66 60 60 63 63 59 58 61 56 54 54 56
171 168 167 165 165 155 141 131 107 95 90 86 82 79 67 70 81 99 97 101 105 107 105 102 96 93 93 91 87 78 70 64 59 61 62 60 60 58 61 66 61 54 52
171 173 168 160 167 160 158 147 123 106 99 85 77 66 60 70 81 99 116 118 114 115 110 108 103 95 94 97 91 81 74 74 63 56 58 61 57 56 56 58 60 60 54
173 172 164 169 169 169 164 162 155 146 130 101 82 74 76 78 94 108 130 130 128 130 130 126 119 115 112 110 107 100 89 75 68 62 55 58 62 58 59 58 54 53 61
181 175 172 179 176 175 173 166 156 136 137 116 100 79 75 84 93 131 164 149 146 137 145 142 142 145 131 149 152 149 133 108 74 61 63 59 57 59 58 58 59 56 55
190 183 184 188 181 178 171 160 149 143 157 160 149 118 77 75 78 94 151 148 154 163 161 171 172 179 177 184 270 298 158 97 109 88 69 66 59 57 59 57 58 56 58
195 187 191 190 189 182 178 177 173 174 173 168 152 137 131 105 99 92 149 160 168 167 167 187 205 215 218 214 175 347 16 103 174 137 106 80 65 56 54 56 56 56 56
193 190 193 189 189 185 187 183 193 187 166 148 135 141 147 123 111 110 131 158 168 170 171 181 200 223 236 264 245 178 141 149 204 182 145 117 92 69 55 53 55 55 57
191 190 192 192 188 187 191 193 197 186 177 161 155 153 154 139 127 116 112 152 165 168 176 180 196 189 230 267 275 224 209 210 189 181 176 161 128 99 72 57 54 56 61
Height
1538 1537 1536 1535 1535 1535 1534 1534 1533 1532 1532 1532 1532 1532 1532 1533 1533 1533 1533 1533 1533 1533 1533 1533 1533 1532 1532 1532 1531 1531 1531 1531 1531 1531 1531 1530 1530 1530 1529 1529 1529 1529 1529
1538 1538 1537 1537 1537 1536 1536 1535 1535 1534 1534 1534 1534 1534 1534 1534 1534 1535 1534 1534 1534 1534 1534 1534 1534 1533 1533 1532 1532 1532 1532 1532 1533 1532 1532 1532 1532 1531 1531 1531 1531 1531 1530
1539 1539 1539 1538 1538 1538 1538 1537 1537 1536 1536 1535 1535 1535 1535 1536 1536 1536 1536 1536 1536 1536 1536 1536 1535 1535 1534 1532 1531 1533 1533 1534 1534 1534 1534 1535 1534 1533 1533 1532 1532 1532 1532
1540 1540 1540 1540 1539 1539 1539 1539 1539 1538 1538 1537 1537 1537 1537 1537 1538 1538 1538 1538 1538 1538 1538 1537 1537 1536 1534 1530 1528 1533 1535 1535 1535 1535 1537 1536 1536 1534 1534 1534 1534 1534 1534
1542 1542 1541 1541 1541 1541 1541 1540 1540 1540 1540 1539 1539 1539 1539 1539 1539 1539 1539 1540 1539 1539 1539 1539 1539 1538 1537 1534 1534 1535 1536 1537 1537 1537 1537 1537 1536 1536 1536 1536 1536 1535 1535
1543 1543 1543 1543 1542 1542 1542 1542 1542 1542 1542 1541 1541 1541 1541 1541 1541 1541 1541 1541 1541 1541 1541 1541 1540 1540 1539 1538 1538 1538 1538 1538 1539 1539 1538 1538 1538 1537 1537 1537 1537 1537 1537
1545 1545 1544 1544 1544 1544 1544 1544 1544 1544 1544 1544 1543 1543 1543 1543 1543 1543 1543 1543 1543 1543 1543 1542 1542 1542 1541 1541 1540 1540 1540 1540 1541 1540 1540 1540 1539 1538 1538 1538 1539 1539 1538
1546 1546 1546 1546 1546 1546 1546 1546 1546 1546 1546 1546 1545 1545 1545 1545 1545 1545 1545 1545 1544 1544 1544 1544 1544 1544 1543 1543 1542 1542 1542 1542 1543 1542 1541 1541 1540 1540 1540 1540 1540 1540 1540
1547 1548 1548 1548 1548 1548 1548 1548 1548 1548 1548 1548 1547 1547 1547 1547 1547 1547 1547 1546 1546 1546 1546 1546 1546 1545 1545 1545 1544 1544 1544 1543 1544 1544 1543 1542 1541 1541 1541 1541 1541 1541 1541
1549 1550 1550 1550 1551 1551 1550 1549 1550 1550 1549 1550 1549 1549 1549 1549 1549 1549 1549 1548 1548 1548 1548 1548 1547 1547 1547 1546 1546 1546 1546 1546 1546 1546 1545 1544 1543 1542 1542 1543 1543 1542 1542
1550 1551 1552 1552 1552 1552 1553 1551 1552 1551 1551 1551 1551 1551 1551 1552 1551 1551 1550 1550 1550 1550 1549 1549 1549 1549 1548 1548 1548 1547 1547 1548 1547 1547 1546 1545 1545 1544 1544 1544 1544 1544 1543
1552 1553 1553 1554 1554 1554 1554 1554 1554 1554 1554 1554 1554 1553 1553 1553 1553 1552 1551 1551 1551 1551 1551 1551 1551 1551 1551 1551 1550 1550 1550 1549 1549 1549 1548 1547 1547 1546 1546 1546 1545 1545 1545
1553 1553 1554 1555 1555 1555 1555 1556 1555 1555 1555 1555 1555 1555 1555 1554 1554 1554 1554 1554 1553 1553 1553 1553 1553 1553 1553 1552 1552 1552 1551 1551 1551 1550 1549 1549 1548 1548 1547 1547 1547 1546 1546
1554 1555 1555 1556 1556 1557 1557 1557 1557 1557 1557 1557 1557 1557 1556 1556 1556 1556 1555 1555 1555 1555 1555 1555 1555 1555 1555 1555 1554 1554 1553 1553 1552 1552 1551 1550 1550 1550 1549 1548 1548 1547 1547
1555 1555 1556 1557 1557 1558 1558 1558 1558 1558 1559 1559 1558 1558 1558 1558 1557 1557 1556 1556 1556 1556 1556 1556 1557 1556 1556 1556 1556 1555 1555 1554 1554 1553 1553 1552 1552 1551 1551 1550 1549 1549 1548
1555 1556 1556 1557 1558 1559 1559 1559 1560 1560 1559 1560 1559 1559 1559 1559 1559 1558 1558 1557 1557 1557 1557 1558 1558 1557 1557 1557 1557 1556 1556 1556 1556 1555 1555 1554 1553 1552 1552 1552 1551 1550 1550
1555 1556 1557 1558 1558 1559 1560 1560 1560 1560 1561 1561 1560 1561 1560 1560 1560 1560 1559 1559 1558 1559 1559 1559 1559 1559 1558 1558 1558 1558 1558 1558 1557 1557 1556 1556 1555 1554 1553 1553 1552 1552 1551
1555 1556 1557 1558 1559 1559 1560 1560 1561 1561 1561 1561 1561 1561 1561 1561 1561 1561 1561 1560 1560 1560 1560 1560 1560 1560 1560 1560 1560 1560 1560 1559 1559 1559 1558 1557 1556 1556 1555 1554 1553 1553 1552
1554 1556 1557 1558 1558 1559 1560 1560 1561 1561 1561 1562 1562 1562 1562 1562 1562 1562 1562 1562 1562 1562 1562 1562 1562 1562 1561 1561 1561 1561 1561 1561 1560 1560 1560 1559 1558 1557 1556 1555 1555 1554 1553
1554 1555 1556 1557 1558 1559 1559 1560 1561 1561 1561 1562 1562 1562 1562 1562 1563 1563 1563 1563 1563 1563 1563 1563 1562 1562 1562 1562 1563 1563 1563 1562 1562 1561 1561 1560 1559 1559 1558 1557 1557 1555 1554
1552 1554 1555 1556 1557 1558 1559 1560 1561 1561 1561 1562 1562 1562 1562 1562 1563 1563 1563 1563 1563 1563 1563 1564 1564 1563 1564 1564 1564 1564 1564 1564 1564 1563 1562 1562 1561 1560 1559 1558 1558 1557 1556
1551 1552 1554 1555 1556 1557 1558 1559 1560 1560 1561 1561 1562 1562 1562 1562 1563 1563 1563 1563 1563 1563 1563 1564 1564 1564 1564 1564 1565 1565 1566 1567 1565 1565 1564 1563 1562 1561 1561 1560 1559 1558 1557
1550 1551 1553 1554 1555 1556 1557 1558 1559 1560 1560 1561 1561 1562 1562 1562 1562 1563 1563 1563 1563 1563 1564 1564 1564 1564 1565 1565 1565 1566 1566 1566 1566 1566 1565 1564 1563 1562 1562 1561 1560 1559 1558
1548 1550 1552 1553 1554 1556 1557 1558 1558 1559 1560 1561 1561 1561 1561 1562 1562 1562 1562 1563 1563 1563 1563 1564 1564 1564 1565 1565 1565 1564 1565 1565 1566 1567 1567 1565 1564 1563 1563 1562 1561 1561 1560
1547 1548 1550 1552 1553 1554 1556 1557 1558 1559 1559 1560 1560 1561 1561 1561 1562 1562 1562 1562 1563 1563 1563 1563 1563 1564 1564 1564 1565 1564 1564 1564 1565 1566 1566 1566 1566 1564 1563 1563 1562 1561 1561
1545 1546 1548 1550 1551 1553 1554 1555 1557 1558 1558 1559 1560 1560 1561 1561 1561 1562 1562 1562 1562 1563 1563 1563 1563 1563 1563 1563 1564 1564 1564 1564 1565 1565 1565 1566 1566 1565 1564 1563 1562 1562 1561